ACA84TL CYQB-CYUL

Flight info

Callsign ACA84TL
Flight time 0h 29m
Altitude 20000
Route TIBOS ROCKT3
Aircraft A320/M-SDE3FGHIRWY/LB1

Departure

Time 2026-05-07 20:02
Airport Quebec Jean Lesage International Airport (CYQB)

Arrival

Time 2026-05-07 20:31
Airport Montreal / Pierre Elliott Trudeau International Airport (CYUL)
Time Latitude Longitude Altitude Speed Heading
2026-05-07 19:36 46.79080 -71.38504 244 ft 0 kts 88°
2026-05-07 19:48 46.79080 -71.38505 244 ft 1 kts 88°
2026-05-07 19:48 46.79084 -71.38537 244 ft 4 kts 111°
2026-05-07 19:49 46.79090 -71.38574 244 ft 4 kts 93°
2026-05-07 19:49 46.79087 -71.38611 244 ft 4 kts 56°
2026-05-07 19:49 46.79070 -71.38631 244 ft 1 kts 14°
2026-05-07 19:49 46.79065 -71.38633 244 ft 0 kts 14°
2026-05-07 19:55 46.79066 -71.38632 244 ft 1 kts 14°
2026-05-07 19:55 46.79115 -71.38616 244 ft 10 kts 12°
2026-05-07 19:56 46.79195 -71.38593 244 ft 13 kts 11°
2026-05-07 19:56 46.79299 -71.38563 244 ft 17 kts 12°
2026-05-07 19:56 46.79410 -71.38482 244 ft 20 kts 47°
2026-05-07 19:56 46.79509 -71.38339 244 ft 17 kts 43°
2026-05-07 19:57 46.79611 -71.38247 244 ft 17 kts 45°
2026-05-07 19:57 46.79690 -71.38129 243 ft 13 kts 44°
2026-05-07 19:57 46.79759 -71.38054 243 ft 11 kts 19°
2026-05-07 19:57 46.79807 -71.38048 244 ft 0 kts
2026-05-07 19:58 46.79848 -71.38047 244 ft 11 kts
2026-05-07 19:58 46.79875 -71.38047 244 ft 0 kts
2026-05-07 19:59 46.79876 -71.38047 244 ft 1 kts
2026-05-07 19:59 46.79938 -71.38061 245 ft 13 kts 333°
2026-05-07 19:59 46.79960 -71.38164 245 ft 12 kts 235°
2026-05-07 19:59 46.79946 -71.38183 246 ft 0 kts 225°
2026-05-07 20:01 46.79944 -71.38186 246 ft 4 kts 225°
2026-05-07 20:01 46.79744 -71.38477 246 ft 77 kts 225°
2026-05-07 20:01 46.79218 -71.39236 249 ft 133 kts 227°
2026-05-07 20:02 46.78533 -71.40283 681 ft 146 kts 230°
2026-05-07 20:02 46.77833 -71.41358 1414 ft 147 kts 230°
2026-05-07 20:02 46.77078 -71.42532 1786 ft 170 kts 231°
2026-05-07 20:02 46.76213 -71.43855 2164 ft 189 kts 229°
2026-05-07 20:03 46.75237 -71.45335 2527 ft 217 kts 229°
2026-05-07 20:03 46.74067 -71.46944 3018 ft 244 kts 219°
2026-05-07 20:03 46.72645 -71.48411 3903 ft 254 kts 217°
2026-05-07 20:03 46.71154 -71.49842 4927 ft 259 kts 217°
2026-05-07 20:04 46.69636 -71.51262 6004 ft 260 kts 216°
2026-05-07 20:04 46.68103 -71.52696 6972 ft 263 kts 216°
2026-05-07 20:04 46.66557 -71.54155 7963 ft 266 kts 216°
2026-05-07 20:04 46.64990 -71.55642 8919 ft 270 kts 216°
2026-05-07 20:05 46.63408 -71.57144 9910 ft 274 kts 216°
2026-05-07 20:05 46.61753 -71.58717 10351 ft 296 kts 216°
2026-05-07 20:05 46.59984 -71.60401 10942 ft 309 kts 216°
2026-05-07 20:05 46.58170 -71.62122 11762 ft 314 kts 216°
2026-05-07 20:06 46.56327 -71.63868 12608 ft 318 kts 216°
2026-05-07 20:06 46.54466 -71.65630 13440 ft 321 kts 216°
2026-05-07 20:06 46.52580 -71.67413 14153 ft 325 kts 216°
2026-05-07 20:06 46.50678 -71.69207 14857 ft 328 kts 216°
2026-05-07 20:07 46.48759 -71.71022 15572 ft 330 kts 216°
2026-05-07 20:07 46.46828 -71.72852 16301 ft 332 kts 216°
2026-05-07 20:07 46.44891 -71.74686 17040 ft 334 kts 216°
2026-05-07 20:07 46.42937 -71.76529 17777 ft 336 kts 216°
2026-05-07 20:08 46.40970 -71.78381 18459 ft 338 kts 217°
2026-05-07 20:08 46.39038 -71.80317 19128 ft 337 kts 223°
2026-05-07 20:08 46.37319 -71.82619 19611 ft 337 kts 227°
2026-05-07 20:08 46.35634 -71.84957 19734 ft 333 kts 227°
2026-05-07 20:09 46.33948 -71.87282 19757 ft 344 kts 227°
2026-05-07 20:09 46.32191 -71.89711 19762 ft 364 kts 227°
2026-05-07 20:09 46.30313 -71.92304 19764 ft 382 kts 226°
2026-05-07 20:10 46.26335 -71.97777 19766 ft 402 kts 226°
2026-05-07 20:10 46.24308 -72.00558 19767 ft 402 kts 226°
2026-05-07 20:10 46.22316 -72.03287 19766 ft 390 kts 226°
2026-05-07 20:10 46.20357 -72.05966 19768 ft 387 kts 226°
2026-05-07 20:11 46.18407 -72.08633 19768 ft 386 kts 226°
2026-05-07 20:11 46.16463 -72.11295 19757 ft 384 kts 226°
2026-05-07 20:11 46.14531 -72.13938 19770 ft 382 kts 226°
2026-05-07 20:11 46.12604 -72.16573 19767 ft 382 kts 226°
2026-05-07 20:12 46.10673 -72.19208 19772 ft 382 kts 226°
2026-05-07 20:12 46.08746 -72.21831 19768 ft 376 kts 226°
2026-05-07 20:12 46.06898 -72.24338 19775 ft 354 kts 227°
2026-05-07 20:12 46.05152 -72.26702 19769 ft 335 kts 227°
2026-05-07 20:13 46.03481 -72.28965 19542 ft 324 kts 227°
2026-05-07 20:13 46.01867 -72.31155 19307 ft 314 kts 227°
2026-05-07 20:13 46.00299 -72.33282 19041 ft 306 kts 227°
2026-05-07 20:13 45.98771 -72.35348 18798 ft 298 kts 227°
2026-05-07 20:14 45.97281 -72.37366 18552 ft 292 kts 227°
2026-05-07 20:14 45.95815 -72.39372 18309 ft 290 kts 229°
2026-05-07 20:14 45.94576 -72.41624 18059 ft 286 kts 241°
2026-05-07 20:14 45.93630 -72.44127 17797 ft 285 kts 244°
2026-05-07 20:15 45.92700 -72.46640 17523 ft 285 kts 244°
2026-05-07 20:15 45.91769 -72.49149 17239 ft 284 kts 244°
2026-05-07 20:15 45.90838 -72.51654 16963 ft 284 kts 244°
2026-05-07 20:15 45.89909 -72.54149 16693 ft 284 kts 244°
2026-05-07 20:16 45.88978 -72.56643 16422 ft 283 kts 244°
2026-05-07 20:16 45.88048 -72.59136 16154 ft 283 kts 244°
2026-05-07 20:16 45.87120 -72.61624 15896 ft 283 kts 244°
2026-05-07 20:16 45.86192 -72.64111 15637 ft 282 kts 244°
2026-05-07 20:17 45.85266 -72.66590 15375 ft 282 kts 244°
2026-05-07 20:17 45.84342 -72.69062 15110 ft 279 kts 244°
2026-05-07 20:17 45.83425 -72.71498 14790 ft 276 kts 244°
2026-05-07 20:17 45.82514 -72.73917 14417 ft 276 kts 244°
2026-05-07 20:18 45.81605 -72.76337 14057 ft 276 kts 244°
2026-05-07 20:18 45.80694 -72.78756 13674 ft 276 kts 244°
2026-05-07 20:18 45.79782 -72.81181 13249 ft 276 kts 244°
2026-05-07 20:18 45.78870 -72.83602 12863 ft 276 kts 244°
2026-05-07 20:19 45.77960 -72.86015 12479 ft 275 kts 244°
2026-05-07 20:19 45.77052 -72.88421 12098 ft 274 kts 244°
2026-05-07 20:19 45.76144 -72.90820 11723 ft 274 kts 244°
2026-05-07 20:19 45.75238 -72.93210 11345 ft 273 kts 244°
2026-05-07 20:20 45.74333 -72.95596 10968 ft 273 kts 244°
2026-05-07 20:20 45.73426 -72.97984 10590 ft 272 kts 243°
2026-05-07 20:20 45.72524 -73.00360 10214 ft 272 kts 244°
2026-05-07 20:20 45.71852 -73.02864 9854 ft 269 kts 259°
2026-05-07 20:21 45.71569 -73.05452 9501 ft 267 kts 263°
2026-05-07 20:21 45.71297 -73.08095 9077 ft 268 kts 262°
2026-05-07 20:21 45.71020 -73.10717 8793 ft 264 kts 262°
2026-05-07 20:21 45.70678 -73.13281 8437 ft 262 kts 257°
2026-05-07 20:22 45.70208 -73.15797 8188 ft 256 kts 257°
2026-05-07 20:22 45.69759 -73.18269 7773 ft 257 kts 257°
2026-05-07 20:22 45.69316 -73.20733 7462 ft 255 kts 257°
2026-05-07 20:22 45.68871 -73.23190 7098 ft 255 kts 257°
2026-05-07 20:23 45.68427 -73.25636 6789 ft 253 kts 257°
2026-05-07 20:23 45.67986 -73.28065 6479 ft 252 kts 257°
2026-05-07 20:23 45.67555 -73.30449 6199 ft 250 kts 257°
2026-05-07 20:23 45.67120 -73.32838 5798 ft 246 kts 257°
2026-05-07 20:24 45.66688 -73.35198 5197 ft 244 kts 257°
2026-05-07 20:24 45.66257 -73.37545 4977 ft 241 kts 257°
2026-05-07 20:24 45.65840 -73.39815 4889 ft 231 kts 257°
2026-05-07 20:24 45.65438 -73.42001 4797 ft 224 kts 257°
2026-05-07 20:25 45.65047 -73.44114 4703 ft 216 kts 257°
2026-05-07 20:25 45.64669 -73.46159 4605 ft 209 kts 257°
2026-05-07 20:25 45.64304 -73.48121 4515 ft 200 kts 257°
2026-05-07 20:25 45.63956 -73.49988 4426 ft 190 kts 257°
2026-05-07 20:26 45.63622 -73.51789 4342 ft 186 kts 257°
2026-05-07 20:26 45.63239 -73.53557 4195 ft 188 kts 246°
2026-05-07 20:26 45.62434 -73.55041 3972 ft 193 kts 227°
2026-05-07 20:26 45.61447 -73.56337 3717 ft 193 kts 227°
2026-05-07 20:27 45.60461 -73.57635 3456 ft 193 kts 228°
2026-05-07 20:27 45.59471 -73.58939 3190 ft 194 kts 227°
2026-05-07 20:27 45.58484 -73.60240 2930 ft 191 kts 227°
2026-05-07 20:27 45.57513 -73.61519 2680 ft 189 kts 229°
2026-05-07 20:28 45.56556 -73.62777 2428 ft 186 kts 228°
2026-05-07 20:28 45.55625 -73.64001 2169 ft 177 kts 227°
2026-05-07 20:28 45.54731 -73.65177 1928 ft 174 kts 228°
2026-05-07 20:28 45.53842 -73.66348 1702 ft 172 kts 228°
2026-05-07 20:29 45.52972 -73.67491 1451 ft 169 kts 229°
2026-05-07 20:29 45.52115 -73.68616 1232 ft 160 kts 229°
2026-05-07 20:29 45.51354 -73.69609 1029 ft 138 kts 229°
2026-05-07 20:29 45.50677 -73.70500 804 ft 134 kts 227°
2026-05-07 20:30 45.50007 -73.71372 611 ft 127 kts 227°
2026-05-07 20:30 45.49363 -73.72221 462 ft 126 kts 231°
2026-05-07 20:30 45.48720 -73.73070 309 ft 127 kts 229°
2026-05-07 20:30 45.48078 -73.73909 139 ft 122 kts 227°
2026-05-07 20:31 45.47559 -73.74624 115 ft 81 kts 223°
2026-05-07 20:31 45.47266 -73.74998 118 ft 34 kts 222°
2026-05-07 20:31 45.47098 -73.75206 113 ft 31 kts 223°
2026-05-07 20:31 45.46938 -73.75413 113 ft 31 kts 220°
2026-05-07 20:32 45.46760 -73.75568 115 ft 29 kts 201°
2026-05-07 20:32 45.46595 -73.75633 118 ft 18 kts 193°
2026-05-07 20:32 45.46462 -73.75676 116 ft 22 kts 192°
2026-05-07 20:32 45.46404 -73.75694 114 ft 0 kts 193°
2026-05-07 20:33 45.46383 -73.75701 114 ft 6 kts 193°
2026-05-07 20:33 45.46345 -73.75714 115 ft 0 kts 193°
2026-05-07 20:34 45.46314 -73.75719 114 ft 9 kts 182°
2026-05-07 20:34 45.46234 -73.75722 114 ft 13 kts 180°
2026-05-07 20:34 45.46146 -73.75696 111 ft 14 kts 131°
2026-05-07 20:35 45.46136 -73.75544 111 ft 17 kts 88°
2026-05-07 20:35 45.46137 -73.75484 112 ft 6 kts 89°
2026-05-07 20:35 45.46132 -73.75402 113 ft 9 kts 113°
2026-05-07 20:35 45.46072 -73.75376 113 ft 11 kts 163°
2026-05-07 20:36 45.46024 -73.75276 112 ft 14 kts 115°
2026-05-07 20:36 45.46007 -73.75135 113 ft 13 kts 86°